Location: Newark
(45.1000°N, 8.5833°E)
Time: 22:21:49
(UTC+00:00)

ISS - Pass Details

Date: 21 September 2019
Orbit: 411 x 421 km, 51.6° (Epoch: 21 October)

Event Time Altitude Azimuth Distance (km) Brightness Sun altitude
Rises 20:06:03 0° 266° (W) 2,340 0.8 -27.6°
Reaches altitude 10° 20:08:15 10° 275° (W) 1,480 -0.2 -27.9°
Enters shadow 20:09:22 18° 286° (WNW) 1,078 -1.0 -28.1°
